• MPC Preparation (Info)

  • MPEC 2022-F46 : 2022 FB1

    The following Minor Planet Electronic Circular may be linked-to from your own Web pages, but must not otherwise be redistributed electronically.

    A form allowing access to any MPEC is at the bottom of this page.


    Read MPEC 2022-F45 Read MPEC 2022-F47


    M.P.E.C. 2022-F46                                Issued 2022 March 25, 11:21 UT
    
         The Minor Planet Electronic Circulars contain information on unusual
             minor planets and routine data on comets.  They are published
        on behalf of Division F of the International Astronomical Union by the
              Minor Planet Center, Smithsonian Astrophysical Observatory,
                              Cambridge, MA 02138, U.S.A.
    
                 Prepared using the Tamkin Foundation Computer Network
    
                                  MPC@CFA.HARVARD.EDU
                URL https://www.minorplanetcenter.net/    ISSN 1523-6714
    
                                    2022 FB1                                 
    
    
    Observations:
         K22F01B* C2022 03 24.23246011 27 48.87 -09 18 23.3          20.02GVEF046G96
         K22F01B  C2022 03 24.23808011 27 51.45 -09 17 07.2          19.75GVEF046G96
         K22F01B  C2022 03 24.24368911 27 53.99 -09 15 52.7          20.08GVEF046G96
         K22F01B  C2022 03 24.24931411 27 56.58 -09 14 36.5          19.99GVEF046G96
         K22F01B mC2022 03 24.35800611 28 45.04 -08 50 40.1          19.68GVEF046I52
         K22F01B mC2022 03 24.35840211 28 45.22 -08 50 35.1          20.12GVEF046I52
         K22F01B mC2022 03 24.35879811 28 45.35 -08 50 29.9          20.56GVEF046I52
         K22F01B mC2022 03 24.35919511 28 45.61 -08 50 24.7          19.45GVEF046I52
         K22F01B 1C2022 03 24.84917811 32 45.31 -07 12 03.3                VEF046246
         K22F01B 1C2022 03 24.85510911 32 47.41 -07 10 56.8                VEF046246
         K22F01B 1C2022 03 24.85613411 32 47.96 -07 10 46.3                VEF046246
         K22F01B 1C2022 03 24.85681811 32 48.44 -07 10 38.9                VEF046246
         K22F01B KC2022 03 24.88378911 33 01.00 -07 05 26.3          20.2 GXEF046I93
         K22F01B KC2022 03 24.89625011 33 05.77 -07 03 07.6          20.5 GXEF046I93
         K22F01B KC2022 03 24.90860611 33 10.49 -07 00 50.1          19.9 GXEF046I93
         K22F01B 1C2022 03 24.92312 11 33 14.06 -06 58 22.9          20.6 VXEF046033
         K22F01B 1C2022 03 24.92375 11 33 14.34 -06 58 15.5          20.1 VXEF046033
         K22F01B 1C2022 03 24.92439 11 33 14.53 -06 58 09.0          20.3 VXEF046033
         K22F01B HC2022 03 24.97057 11 33 32.20 -06 49 31.6                VEF046204
         K22F01B KC2022 03 24.97632811 33 33.98 -06 48 24.5          20.1 GVEF046104
         K22F01B KC2022 03 24.98112111 33 35.74 -06 47 33.1          19.8 GVEF046104
         K22F01B HC2022 03 24.98355 11 33 36.96 -06 47 10.3          20   GVEF046204
         K22F01B KC2022 03 24.98523111 33 37.29 -06 46 48.3          19.9 GVEF046104
         K22F01B mC2022 03 25.22878111 35 21.53 -06 03 36.9          20.22GVEF046I52
         K22F01B mC2022 03 25.22913111 35 21.66 -06 03 33.4                VEF046I52
         K22F01B mC2022 03 25.22948211 35 21.78 -06 03 30.0                VEF046I52
         K22F01B |C2022 03 25.28004 11 35 31.86 -05 51 57.9          19.8 VuEF046807
         K22F01B |C2022 03 25.28432 11 35 33.31 -05 51 14.7          20.4 VuEF046807
         K22F01B |C2022 03 25.28863 11 35 34.74 -05 50 31.1          20.3 VuEF046807
         K22F01B  C2022 03 25.34659711 35 59.40 -05 43 58.3          20.0 GVEF046H01
         K22F01B  C2022 03 25.35113211 36 00.88 -05 43 13.3          20.8 GVEF046H01
         K22F01B  C2022 03 25.36205411 36 04.45 -05 41 25.2          19.7 GVEF046H01
         K22F01B  C2022 03 25.36785011 36 06.35 -05 40 28.0          20.2 GVEF046H01
    
    Observer details:
    033 Karl Schwarzschild Observatory, Tautenburg.  Observers S. Melnikov, C.
        Hoegner, U. Laux, F. Ludwig, B. Stecklum.  Measurer B. Stecklum.  1.34-m
        f/3 Schmidt + CCD.
    104 San Marcello Pistoiese.  Observers P. Bacci, M. Maestripieri.  Measurers
        P. Bacci, L. Tesi, G. Fagioli.  0.60-m reflector + CCD.
    204 Schiaparelli Observatory.  Observer L. Buzzi.  0.84-m f/3.5 reflector +
        CCD.
    246 Klet Observatory-KLENOT.  Observers M. Tichy, J. Ticha, M. Honkova.
        Measurer M. Tichy.  1.06-m f/2.7 reflector + 2048x2048 CCD.
    807 Cerro Tololo Observatory, La Serena.  Observers T. Linder, R. Holmes, L.
        Horn.  0.61-m f/6.5 astrograph + CCD.
    G96 Mt. Lemmon Survey.  Observers A. Serrano, G. J. Leonard.  Measurers E. J.
        Christensen, G. A. Farneth, J. B. Fazekas, D. C. Fuls, A. R. Gibbs, A. D.
        Grauer, H. Groeller, J. K. Hogan, R. A. Kowalski, S. M. Larson, G. J.
        Leonard, D. Rankin, R. L. Seaman, A. Serrano, F. C. Shelly, K. W.
        Wierzchos.  1.5-m reflector + 10K CCD.
    H01 Magdalena Ridge Observatory, Socorro.  Observers W. H. Ryan, E. V. Ryan.
        Measurer W. H. Ryan.  2.4-m f/8.9 Ritchey-Chretien + CCD.
    I52 Steward Observatory, Mt. Lemmon Station.  Observer K. W. Wierzchos.
        Measurers E. J. Christensen, G. A. Farneth, J. B. Fazekas, D. C. Fuls, A.
        R. Gibbs, A. D. Grauer, H. Groeller, J. K. Hogan, R. A. Kowalski, S. M.
        Larson, G. J. Leonard, D. Rankin, R. L. Seaman, A. Serrano, F. C. Shelly,
        K. W. Wierzchos.
    I93 St Pardon de Conques.  Observer F. Losse.  0.40-m f/3.7 reflector + CCD.
    
    Orbital elements:
    2022 FB1                                                 Earth MOID = 0.0037 AU
    Epoch 2022 Jan. 21.0 TT = JDT 2459600.5                 Veres                   
    M 359.49225              (2000.0)            P               Q                  
    n   0.67862749     Peri.  266.17124     -0.05907792     -0.99814912             
    a   1.2824736      Node   187.26294     +0.95519397     -0.05232487             
    e   0.4319842      Incl.    6.55268     +0.29002460     -0.03099106             
    P   1.45           H   26.09          G   0.15           U   7                  
    Residuals in seconds of arc
    220324 G96  0.2-  0.4-    220324 246  1.2+  0.6-    220324 104  0.7+  0.3-
    220324 G96  0.0   0.4+    220324 I93  0.1+  0.1+    220325 I52  0.0   0.1+
    220324 G96  0.2-  0.3-    220324 I93  0.1-  0.2+    220325 I52  0.1+  0.1+
    220324 G96  0.3+  0.6+    220324 I93  0.3+  0.7+    220325 I52  0.1+  0.0
    220324 I52  0.0   0.0     220324 033  0.2+  0.0     220325 807  0.1+  0.1-
    220324 I52  0.1+  0.1-    220324 033  0.8+  0.4+    220325 807  0.1+  0.0
    220324 I52  0.6-  0.2-    220324 033  0.0   0.2-    220325 807  0.3-  0.2+
    220324 I52  0.6+  0.1-    220324 204  0.0   0.2+    220325 H01  0.0   0.1-
    220324 246  0.9-  0.9+    220324 104  0.1+  0.7+    220325 H01  0.0   0.0
    220324 246  4.2-  0.7+    220324 104  0.1+  0.3-    220325 H01  0.0   0.0
    220324 246  2.0-  0.3-    220324 204  0.3-  0.3-    220325 H01  0.0   0.0
    
    Ephemeris:
    2022 FB1                 a,e,i = 1.28, 0.43, 7                   q = 0.7285
    Date    TT    R. A. (2000) Decl.     Delta      r    Elong.  Phase     V
    2022 02 23    00 26 23.9 -17 55 30   0.1820  0.8381    30.7   142.9    29.3
    ...
    2022 03 10    00 58 20.1 -27 41 00   0.06773 0.9370    33.1   144.6    27.6
    ...
    2022 03 18    05 30 29.3 -60 15 22   0.02060 0.9941    86.7    92.2    20.9
    ...
    2022 03 24    11 25 37.8 -10 10 19   0.04215 1.0377   165.6    13.8    20.1
    2022 03 25    11 33 45.2 -06 41 57   0.04878 1.0449   168.6    10.9    20.3
    2022 03 26    11 39 51.1 -04 03 30   0.05562 1.0522   170.2     9.3    20.5
    ...
    2022 04 01    11 58 13.5 +03 47 46   0.09905 1.0957   166.7    12.1    22.0
    ...
    2022 04 09    12 07 55.3 +07 10 16   0.1611  1.1531   158.9    18.3    23.4
    ...
    2022 04 24    12 18 48.8 +08 20 13   0.2896  1.2567   146.3    26.4    25.1
    
    M. P. C. Staff               (C) Copyright 2022 MPC           M.P.E.C. 2022-F46
    


    Read MPEC 2022-F45 Read MPEC 2022-F47


    MPEC number:

    Enter an MPEC number in one of the following forms:

    • 1997-B01 (the full form)
    • J97B01 (the packed version of the full form)
    • B01 (the abbreviated form)